KKYDRYRI2 Weather Reports


time (UTC)temp
C
wind
direction
speed
KPH
gust
KPH
rain 1hr
cm
rain 24hr
cm
rain mn
cm
humidity
%
barometer
mb
20260508215655 22 338 6.4 16.1 0.00 0.00 0.00 43 1011.2
20260508213519 22 28 4.8 22.5 0.00 0.00 0.00 42 1011.3
20260508212537 22 109 4.8 17.7 0.00 0.00 0.00 41 1011.3
20260508211531 22 40 4.8 16.1 0.00 0.00 0.00 42 1011.6
20260508210538 22 17 6.4 17.7 0.00 0.00 0.00 41 1011.5
20260508205548 22 0 4.8 17.7 0.00 0.00 0.00 41 1011.6
20260508204529 22 55 6.4 16.1 0.00 0.00 0.00 42 1011.9
20260508203512 21 329 3.2 17.7 0.00 0.00 0.00 45 1011.9
20260508202508 21 336 4.8 17.7 0.00 0.00 0.00 44 1012.1
20260508201505 21 0 4.8 16.1 0.00 0.00 0.00 41 1012.3
20260508200457 21 355 4.8 24.1 0.00 0.00 0.00 44 1012.5
20260508195459 21 5 4.8 24.1 0.00 0.00 0.00 44 1012.5
20260508194457 21 355 8.0 20.9 0.00 0.00 0.00 42 1012.4
20260508193507 21 0 6.4 24.1 0.00 0.00 0.00 41 1012.6
20260508192441 21 339 6.4 25.7 0.00 0.00 0.00 43 1012.6
20260508191458 21 80 8.0 30.6 0.00 0.00 0.00 43 1012.8
20260508190520 21 320 9.7 30.6 0.00 0.00 0.00 43 1013.0
20260508185446 21 19 6.4 22.5 0.00 0.00 0.00 43 1013.1
20260508184445 21 345 6.4 24.1 0.00 0.00 0.00 41 1013.3
20260508183419 21 89 6.4 24.1 0.00 0.00 0.00 42 1013.4
20260508182435 21 111 6.4 24.1 0.00 0.00 0.00 44 1013.5
20260508181423 21 328 6.4 25.7 0.00 0.00 0.00 41 1013.6
20260508175306 20 0 6.4 20.9 0.00 0.00 0.00 42 1014.3
20260508173113 20 321 8.0 24.1 0.00 0.00 0.00 45 1014.6
20260508172105 20 324 6.4 22.5 0.00 0.00 0.00 46 1014.7
20260508170029 20 67 6.4 17.7 0.00 0.00 0.00 47 1015.2
20260508165010 20 84 4.8 17.7 0.00 0.00 0.00 49 1015.6
20260508164000 19 288 4.8 20.9 0.00 0.00 0.00 48 1015.8
20260508162959 19 17 6.4 20.9 0.00 0.00 0.00 49 1016.0
20260508162000 19 28 4.8 20.9 0.00 0.00 0.00 50 1016.0
20260508160931 18 66 6.4 20.9 0.00 0.00 0.00 49 1016.5
20260508155906 18 313 4.8 19.3 0.00 0.00 0.00 51 1016.4
20260508154927 18 296 4.8 20.9 0.00 0.00 0.00 52 1016.6
20260508152728 17 36 4.8 17.7 0.00 0.00 0.00 53 1016.7
20260508151655 17 42 3.2 17.7 0.00 0.00 0.00 53 1016.9
20260508150649 17 88 4.8 19.3 0.00 0.00 0.00 52 1017.0
20260508145709 17 29 6.4 19.3 0.00 0.00 0.00 53 1017.1
20260508144700 16 76 4.8 16.1 0.00 0.00 0.00 56 1017.1
20260508143644 16 28 3.2 12.9 0.00 0.00 0.00 57 1017.0
20260508142706 16 16 4.8 17.7 0.00 0.00 0.00 57 1017.1
20260508141714 15 167 3.2 19.3 0.00 0.00 0.00 60 1017.2
20260508140725 15 112 4.8 19.3 0.00 0.00 0.00 60 1017.3
20260508135744 15 27 4.8 14.5 0.00 0.00 0.00 59 1017.4
20260508134736 14 355 1.6 9.7 0.00 0.00 0.00 61 1017.4
20260508133712 14 355 1.6 9.7 0.00 0.00 0.00 61 1017.4
20260508132705 13 262 4.8 20.9 0.00 0.00 0.00 60 1017.3
20260508131632 13 327 3.2 20.9 0.00 0.00 0.00 60 1017.3
20260508130612 13 335 3.2 17.7 0.00 0.00 0.00 60 1017.3
20260508125621 12 95 1.6 11.3 0.00 0.00 0.00 62 1017.2
20260508124638 12 62 1.6 8.0 0.00 0.00 0.00 64 1017.3
20260508123656 11 53 1.6 8.0 0.00 0.00 0.00 66 1017.3
20260508122720 11 13 0.0 3.2 0.00 0.00 0.00 67 1017.2
20260508121702 11 113 0.0 9.7 0.00 0.00 0.00 68 1017.2
20260508120723 10 355 0.0 9.7 0.00 0.00 0.00 68 1017.3
20260508115703 10 40 1.6 6.4 0.00 0.00 0.00 69 1017.2
20260508114633 10 5 1.6 8.0 0.00 0.00 0.00 69 1017.1
20260508113611 9 355 1.6 8.0 0.00 0.00 0.00 70 1017.0
20260508112636 8 9 1.6 4.8 0.00 0.00 0.00 71 1016.9
20260508111606 8 344 0.0 4.8 0.00 0.00 0.00 72 1016.9
20260508110606 8 44 0.0 4.8 0.00 0.00 0.00 72 1016.9
20260508105621 8 348 0.0 4.8 0.00 0.00 0.00 73 1016.9
20260508104635 8 342 0.0 4.8 0.00 0.00 0.00 73 1016.8
20260508103621 8 9 0.0 4.8 0.00 0.00 0.00 73 1016.8
20260508102640 8 355 0.0 4.8 0.00 0.00 0.00 74 1016.7
20260508100438 8 136 0.0 1.6 0.00 0.00 0.00 77 1016.7
20260508095410 8 136 0.0 0.0 0.00 0.00 0.00 81 1016.7
20260508094427 7 136 0.0 1.6 0.00 0.00 0.00 79 1016.7
20260508093431 7 136 0.0 1.6 0.00 0.00 0.00 83 1016.6
20260508092436 7 136 0.0 0.0 0.00 0.00 0.00 89 1016.6
20260508090232 7 136 0.0 1.6 0.00 0.00 0.00 89 1016.5
20260508085241 7 136 0.0 1.6 0.00 0.00 0.00 89 1016.5
20260508084249 7 136 0.0 0.0 0.00 0.00 0.00 88 1016.5
20260508082104 7 136 0.0 0.0 0.00 0.00 0.00 88 1016.2
20260508081053 7 136 0.0 1.6 0.00 0.00 0.00 87 1016.1
20260508080027 7 136 0.0 1.6 0.00 0.00 0.00 87 1016.2
20260508075035 7 136 0.0 0.0 0.00 0.00 0.00 89 1016.2
20260508072859 6 136 0.0 0.0 0.00 0.00 0.00 90 1016.5
20260508071905 6 136 0.0 0.0 0.00 0.00 0.00 90 1016.6
20260508070840 6 136 0.0 0.0 0.00 0.00 0.00 91 1016.7
20260508065811 6 136 0.0 0.0 0.00 0.00 0.00 91 1016.8
20260508064755 6 136 0.0 0.0 0.00 0.00 0.00 92 1016.8
20260508062645 6 136 0.0 1.6 0.00 0.00 0.00 93 1017.0
20260508061630 6 136 0.0 0.0 0.00 0.00 0.00 93 1017.0
20260508055518 6 136 0.0 3.2 0.00 0.00 0.00 93 1017.1
20260508053345 6 136 0.0 0.0 0.00 0.00 0.00 93 1017.1
20260508052314 6 136 0.0 0.0 0.00 0.00 0.00 93 1017.1
20260508051316 6 136 0.0 1.6 0.00 0.00 0.00 93 1017.1
20260508050305 6 136 0.0 1.6 0.00 0.00 0.00 93 1016.9
20260508045307 6 136 0.0 0.0 0.00 0.00 0.00 93 1017.0
20260508044255 6 136 0.0 0.0 0.00 0.00 0.00 93 1017.1
20260508043308 6 136 0.0 1.6 0.00 0.00 0.00 93 1017.2
20260508042236 6 136 0.0 0.0 0.00 0.00 0.00 92 1017.1
20260508041233 7 136 0.0 0.0 0.00 0.00 0.00 92 1017.0
20260508034023 7 136 0.0 1.6 0.00 0.00 0.00 91 1017.0
20260508032956 7 136 0.0 0.0 0.00 0.00 0.00 91 1017.1
20260508031946 7 136 0.0 0.0 0.00 0.00 0.00 90 1017.1
20260508030931 7 136 0.0 1.6 0.00 0.00 0.00 89 1017.1
20260508025915 7 136 0.0 0.0 0.00 0.00 0.00 89 1017.2
20260508024858 8 136 0.0 1.6 0.00 0.00 0.00 88 1017.1
20260508021544 8 136 0.0 0.0 0.00 0.00 0.00 85 1017.0
20260508020521 8 136 0.0 3.2 0.00 0.00 0.00 84 1017.0
20260508014442 9 136 0.0 3.2 0.00 0.00 0.00 81 1016.8
20260508013457 9 136 0.0 1.6 0.00 0.00 0.00 80 1016.6
20260508012506 10 136 0.0 1.6 0.00 0.00 0.00 79 1016.5
20260508011439 10 136 0.0 1.6 0.00 0.00 0.00 77 1016.4
20260508010433 11 136 0.0 1.6 0.00 0.00 0.00 75 1016.3
20260508005405 11 136 0.0 1.6 0.00 0.00 0.00 74 1016.2
20260508004408 12 136 1.6 1.6 0.00 0.00 0.00 71 1016.1
20260508003402 12 136 1.6 3.2 0.00 0.00 0.00 72 1016.0
20260508002408 13 136 1.6 3.2 0.00 0.00 0.00 67 1016.0
20260508001351 14 136 0.0 3.2 0.00 0.00 0.00 63 1015.8
20260508000320 15 136 0.0 3.2 0.00 0.00 0.00 59 1015.8
20260507235310 15 136 0.0 3.2 0.00 0.00 0.00 49 1015.8
20260507234334 16 136 0.0 3.2 0.00 0.00 0.00 44 1015.7
20260507233332 17 137 0.0 6.4 0.00 0.00 0.00 45 1015.7
20260507232327 16 140 1.6 6.4 0.00 0.00 0.00 45 1015.7
20260507231305 17 127 0.0 4.8 0.00 0.00 0.00 43 1015.6
20260507230253 16 135 3.2 11.3 0.00 0.00 0.00 42 1015.7
20260507224119 16 141 4.8 11.3 0.00 0.00 0.00 45 1015.6
20260507223111 16 142 4.8 12.9 0.00 0.00 0.00 41 1015.6
20260507222116 16 138 4.8 12.9 0.00 0.00 0.00 41 1015.7
20260507221121 16 24 3.2 12.9 0.00 0.00 0.00 41 1015.5